Location: Spor
(46.2167°N, 11.0500°E)
Time: 21:19:44
(UTC+00:00)

In-Cosmos 22 Rocket - Pass Details

Date: 07 June 2020
Orbit: 790 x 888 km, 81.2° (Epoch: 04 July)

Event Time Altitude Azimuth Distance (km) Brightness Sun altitude
Exits shadow 01:31:05 18° 187° (S) 1,968 5.6 -14.4°
Maximum altitude 01:35:22 86° 99° (E) 842 4.2 -14.0°
Drops below altitude 10° 01:40:52 10° 12° (NNE) 2,421 7.7 -13.5°
Sets 01:43:14 0° 12° (NNE) 3,344 8.7 -13.2°
